Volver al catálogo

COSMOS 1867 COOLANT

ActivoLEO
NORAD 39660·DEBRIS·🇷🇺 Russia

Lanzado Jul 10, 1987 desde Baikonur Cosmodrome

Loading…

Próximos Pases (próximas 24 horas)

TLE

ActualizadoSource: Space-Track

Época: Sep 12, 2026, 22:36 UTC

1 39660U 87060X   26255.94174199  .00000146  00000-0  88105-4 0  9996
2 39660  65.0073 126.0154 0019309 279.7635  80.1269 14.33923240649182

Sigue COSMOS 1867 COOLANT en tiempo real con AllMySat

Download on the App Store